Flag for France Weather past 2 weeks in Boulogne-Billancourt, France

Now
48 °F

Scattered clouds.


Feels Like: 42 °F
Forecast: 39 / 50 °F
Wind: 16 mph from Northwest

Location: Paris-Orly

Current Time: Mar 2, 2015 at 1:45:26 PM

Latest Report: Mar 2, 2015 at 1:00 PM


Visibility: N/A

Pressure: 29.92 "Hg

Humidity: 66%

Dew point: 37 °F

Location of Boulogne-BillancourtLocation

Historic Weather in Boulogne-Billancourt — Graph

°F

Boulogne-Billancourt temperature yesterday

Maximum temperature yesterday: 54 °F (at 1:00 PM)
Minimum temperature yesterday: 45 °F (at 12:00 AM)
Average temperature yesterday: 50 °F

Past Weeks' High & Low Weather Summary

 TemperatureHumidityPressure
High54 °F (Mar 1, 1:00 PM)100% (Feb 16, 2:30 AM)30.74 "Hg (Feb 16, 2:30 AM)
Low27 °F (Feb 22, 7:00 AM)40% (Feb 27, 5:00 PM)29.45 "Hg (Feb 23, 5:00 AM)
Average42 °F85%30.00 "Hg
* Reported Feb 15 12:00 Noon — Mar 2 12:30 PM, Boulogne-Billancourt, Weather by CustomWeather, © 2015

Note: Actual official high and low records may vary slightly from our data, if they occured in-between our weather recording intervals... More about our weather records

Advertising

Boulogne-Billancourt weather history for previous 24 hours

 ConditionsComfort  
Time TempWeatherWind HumidityBarometerVisibility
12:30 PM
Mon, Mar 2
50 °FBroken clouds.24 mph62%29.89 "HgN/A
12:00 PM48 °FBroken clouds.15 mph76%29.89 "HgN/A
11:30 AM48 °FSprinkles. Partly sunny.21 mph66%29.89 "HgN/A
11:00 AM48 °FScattered clouds.21 mph71%29.89 "HgN/A
10:30 AM48 °FScattered clouds.20 mph71%29.89 "HgN/A
10:00 AM46 °FScattered clouds.16 mph76%29.86 "HgN/A
9:30 AM46 °FScattered clouds.17 mph76%29.86 "HgN/A
9:00 AM45 °FBroken clouds.13 mph76%29.83 "HgN/A
8:30 AM43 °FSprinkles. Broken clouds.9 mph81%29.80 "HgN/A
8:00 AM45 °FSprinkles. Broken clouds.16 mph76%29.80 "HgN/A
7:30 AM46 °FPassing clouds.10 mph82%29.80 "HgN/A
7:00 AM45 °FClear.9 mph87%29.77 "Hg10 mi
6:30 AM46 °FPassing clouds.10 mph82%29.77 "HgN/A
6:00 AM46 °FClear.12 mph82%29.77 "Hg10 mi
5:30 AM46 °FPartly cloudy.10 mph82%29.77 "HgN/A
5:00 AM46 °FPassing clouds.12 mph82%29.74 "HgN/A
4:30 AM46 °FPartly cloudy.10 mph87%29.74 "HgN/A
4:00 AM48 °FPassing clouds.12 mph82%29.74 "HgN/A
3:30 AM46 °FClear.9 mph87%29.74 "Hg10 mi
3:00 AM46 °FPartly cloudy.9 mph87%29.74 "HgN/A
2:30 AM48 °FPassing clouds.14 mph87%29.71 "HgN/A
2:00 AM46 °FPassing clouds.9 mph87%29.71 "HgN/A
1:30 AM46 °FPartly cloudy.9 mph93%29.71 "HgN/A
1:00 AM46 °FLight rain. Passing clouds.14 mph93%29.71 "Hg3 mi
12:30 AM48 °FLight rain. Passing clouds.22 mph87%29.71 "Hg3 mi
12:00 AM52 °FPartly cloudy.17 mph77%29.68 "HgN/A
11:30 PM
Sun, Mar 1
50 °FPartly cloudy.18 mph82%29.71 "HgN/A
11:00 PM52 °FPartly cloudy.18 mph77%29.71 "HgN/A
10:30 PM52 °FPassing clouds.21 mph82%29.68 "HgN/A
10:00 PM52 °FPassing clouds.18 mph88%29.68 "HgN/A
9:30 PM52 °FPartly cloudy.18 mph88%29.68 "HgN/A
8:30 PM50 °FLight rain. Passing clouds.8 mph94%29.68 "Hg4 mi
8:00 PM50 °FLight rain. Partly cloudy.12 mph88%29.71 "HgN/A
7:30 PM50 °FLight rain. Clear.13 mph82%29.71 "HgN/A
7:00 PM50 °FPassing clouds.10 mph76%29.71 "HgN/A
6:30 PM50 °FScattered clouds.8 mph76%29.71 "HgN/A
6:00 PM50 °FPartly sunny.10 mph76%29.74 "HgN/A
5:30 PM52 °FPartly sunny.12 mph72%29.74 "HgN/A
5:00 PM52 °FPartly sunny.15 mph67%29.74 "HgN/A
4:30 PM52 °FPartly sunny.15 mph67%29.77 "HgN/A
4:00 PM54 °FPartly sunny.15 mph63%29.77 "HgN/A
3:30 PM54 °FPartly sunny.16 mph63%29.77 "HgN/A
3:00 PM54 °FPartly sunny.14 mph63%29.77 "HgN/A
2:30 PM54 °FPartly sunny.16 mph63%29.80 "HgN/A
2:00 PM54 °FBroken clouds.12 mph63%29.80 "HgN/A
1:30 PM54 °FPartly sunny.13 mph67%29.80 "HgN/A
1:00 PM54 °FPartly sunny.12 mph63%29.80 "HgN/A
Weather by CustomWeather, © 2015

See weather overviewHow to use our weather pages